Accueil
METAR-TAF:

METAR-TAF

Aéroports :

Greenville, Maine, États-Unis

latitude: 45-28N, longitude: 069-35W, altitude: 427 m

Observation

Le bulletin a été fait il y a 36 minutes, à 19:56 UTC
Vent 5 kt de direction variable
Température 1°C
Humidité 47%
Pression 1016 hPa

METAR: KGNR 221956Z AUTO VRB05KT 01/M09 A3000 RMK AO1 SLP179 T00111089

Heure: 16:32 (20:32 UTC)


TAF: absent

Observations et prévisions météorologiques de plus de 4000 aéroports (messages METAR et TAF).

Les stations disponibles sont représentées par des disques jaunes et rouges sur la carte.

Passer la souris dessus pour voir le nom de la station.

Cliquer dessus pour voir les observations et prévisions météorologiques.

Pour changer de carte: cliquez sur les boutons verts avec une croix noire pour zoomer, sur le bouton vert avec un tiret pour effectuer un zoom arrière, ou sur les flèches vertes pour les cartes adjacentes.


METAR-TAF: